User: anonymous   Login
Location: Bonn
(50.7330°N, 7.1000°E)
Time: 12:07:54
(UTC+02:00)
Language:

Cosmos 1933 Rocket - Orbit

View from above orbital plane
View from above orbital plane
View from above satellite
View from above satellite

Ground track
Ground track

The orbit data is extracted from the following two-line orbital elements,

1 18959U 88020B   15244.19165815  .00000200  00000-0  21468-4 0  9999
2 18959  82.5403 162.7999 0018031 133.4350 226.8369 14.83171717483484
Epoch (UTC): 01 September 2015 04:35:59
Eccentricity: 0.0018031
inclination: 82.5403°
perigee height: 607 km
apogee height: 632 km
right ascension of ascending node: 162.7999°
argument of perigee: 133.4350°
revolutions per day: 14.83171717
mean anomaly at epoch: 226.8369°
orbit number at epoch: 48348

The dashed part of the orbit path shows where the satellite is in the earth's shadow,  

DLR